TimeCDT,TemperatureF,Dew PointF,Humidity,Sea Level PressureIn,VisibilityMPH,Wind Direction,Wind SpeedMPH,Gust SpeedMPH,PrecipitationIn,Events,Conditions,WindDirDegrees,DateUTC
12:52 AM,48.0,35.1,61,30.00,10.0,WNW,9.2,-,N/A,,Clear,290,2013-10-26 05:52:00
1:52 AM,46.9,36.0,66,30.00,10.0,West,9.2,-,N/A,,Clear,280,2013-10-26 06:52:00
2:52 AM,46.0,37.0,71,30.01,10.0,WNW,9.2,-,N/A,,Clear,300,2013-10-26 07:52:00
3:52 AM,46.9,37.9,71,30.03,10.0,NW,15.0,-,N/A,,Clear,310,2013-10-26 08:52:00
4:52 AM,45.0,36.0,71,30.06,10.0,NW,12.7,-,N/A,,Clear,320,2013-10-26 09:52:00
5:52 AM,43.0,35.1,74,30.11,10.0,NNW,13.8,-,N/A,,Clear,330,2013-10-26 10:52:00
6:52 AM,39.9,34.0,79,30.15,10.0,NNW,11.5,-,N/A,,Clear,330,2013-10-26 11:52:00
7:52 AM,39.0,32.0,76,30.17,10.0,NNW,12.7,-,N/A,,Clear,340,2013-10-26 12:52:00
8:52 AM,39.0,32.0,76,30.20,10.0,NNW,13.8,-,N/A,,Clear,340,2013-10-26 13:52:00
9:52 AM,39.9,32.0,73,30.22,10.0,NNW,15.0,-,N/A,,Clear,340,2013-10-26 14:52:00
10:52 AM,43.0,32.0,65,30.25,10.0,NNW,13.8,-,N/A,,Partly Cloudy,340,2013-10-26 15:52:00
11:52 AM,46.0,30.9,56,30.25,10.0,North,13.8,21.9,N/A,,Clear,360,2013-10-26 16:52:00
12:52 PM,46.9,30.0,52,30.25,10.0,NW,16.1,-,N/A,,Clear,320,2013-10-26 17:52:00
1:52 PM,50.0,28.9,44,30.24,10.0,NNW,16.1,-,N/A,,Clear,330,2013-10-26 18:52:00
2:52 PM,50.0,27.0,41,30.22,10.0,NW,16.1,23.0,N/A,,Clear,310,2013-10-26 19:52:00
3:52 PM,50.0,26.1,39,30.21,10.0,NW,15.0,-,N/A,,Clear,320,2013-10-26 20:52:00
4:52 PM,50.0,26.1,39,30.21,10.0,NW,13.8,-,N/A,,Clear,310,2013-10-26 21:52:00
5:52 PM,48.0,27.0,44,30.19,10.0,NNW,8.1,-,N/A,,Clear,330,2013-10-26 22:52:00
6:52 PM,42.1,27.0,55,30.20,10.0,NW,5.8,-,N/A,,Clear,310,2013-10-26 23:52:00
7:52 PM,37.0,26.1,65,30.20,10.0,Calm,Calm,-,N/A,,Clear,0,2013-10-27 00:52:00
8:52 PM,32.0,26.1,79,30.18,10.0,SSW,4.6,-,N/A,,Clear,200,2013-10-27 01:52:00
9:52 PM,34.0,27.0,75,30.19,10.0,Calm,Calm,-,N/A,,Clear,0,2013-10-27 02:52:00
10:52 PM,28.0,24.1,85,30.18,10.0,ESE,3.5,-,N/A,,Clear,110,2013-10-27 03:52:00
11:52 PM,28.0,25.0,88,30.16,10.0,ESE,3.5,-,N/A,,Clear,120,2013-10-27 04:52:00